#timestamp,LO_Frequency,Hit,StdDev 
1637010015.1,286046990.9,N
1637010035.9,286046982.6,Y
1637010055.7,286046993.5,P
1637010075.6,286046994.7,P
1637010095.4,286046994.1,P
1637010115.2,286046990.5,Y
1637010135.1,286046993.5,P
1637010136.0,286046993.5,P
1637010155.8,286046987.2,P
1637010175.7,286046987.6,Y
1637010195.5,286046999.9,P
1637010215.3,286046997.6,N
1637010235.2,286046995.2,N
1637010255.0,286046995.3,N
1637010255.9,286046995.3,N
1637010275.8,286046996.5,N
1637010295.6,286046999.1,N
1637010315.4,286046997.5,N
1637010335.3,286046999.2,N
1637010355.1,286046997.0,N
1637010375.8,286046993.6,N
1637010395.7,286047001.0,N
1637010415.5,286046998.0,N
1637010435.4,286046998.9,N
1637010455.2,286047000.1,N
1637010475.0,286046999.7,N
1637010475.9,286046999.7,N
1637010495.8,286046999.8,N
1637010515.6,286046997.6,N
1637010535.4,286046987.2,Y
1637010555.3,286046987.5,P
1637010575.1,286046992.6,N
1637010595.9,286046999.1,N
1637010615.7,286046996.7,N
1637010635.5,286046995.0,N
1637010655.4,286046993.8,N
1637010675.2,286046999.1,N
1637010695.0,286047002.5,N
1637010695.9,286047002.5,N
1637010715.8,286047003.9,N
1637010735.6,286047002.0,N
1637010755.5,286047005.2,N
1637010775.3,286047010.3,N
1637010795.1,286047018.4,Y
1637010815.9,286047022.4,P
1637010835.7,286047022.5,N
1637010855.5,286047021.3,N
1637010875.4,286047021.9,N
1637010895.2,286047024.3,N
1637010915.1,286047024.2,N
1637010916.0,286047024.2,N
1637010935.8,286047031.4,Y
1637010955.6,286047014.9,P
1637010975.5,286047024.0,P
1637010995.3,286047033.4,P
1637011015.2,286047039.0,Y
1637011035.9,286047015.7,P
1637011055.7,286047023.0,P
1637011075.6,286047024.8,P
1637011095.4,286047021.5,Y
1637011115.2,286046993.5,P
1637011135.1,286046995.2,N
1637011136.0,286046995.2,N
1637011155.8,286046991.8,N
1637011175.7,286046994.6,N
1637011195.5,286046995.6,N
1637011215.3,286046994.6,N
1637011235.2,286046991.1,N
1637011255.0,286046984.9,N
1637011255.9,286046984.9,N
1637011275.7,286046985.6,N
1637011295.6,286046986.6,N
1637011315.4,286046980.8,N
1637011335.3,286046985.9,N
1637011355.1,286046988.9,N
1637011356.0,286046988.9,N
1637011375.8,286046987.9,N
1637011395.7,286046991.7,N
1637011415.5,286046988.9,N
1637011435.3,286046987.8,N
1637011455.2,286046988.8,N
1637011475.0,286046988.6,N
1637011475.9,286046988.6,N
1637011495.8,286046990.4,N
1637011515.6,286046995.9,N
1637011535.4,286046996.7,N
1637011555.3,286046999.9,N
1637011575.1,286046996.8,N
1637011595.8,286046999.3,N
1637011615.7,286046995.4,N
1637011635.5,286046988.6,N
1637011655.4,286046985.2,Y
1637011675.2,286046991.1,P
1637011695.0,286046990.6,P
1637011695.9,286046990.6,P
1637011715.8,286046992.5,Y
1637011735.6,286047003.1,P
1637011755.5,286047011.8,N
1637011775.3,286047018.2,N
1637011795.1,286047022.4,N
1637011815.9,286047025.3,N
1637011835.7,286047023.0,N
1637011855.5,286047021.4,N
1637011875.4,286047021.7,N
1637011895.2,286047020.6,N
1637011915.1,286047018.9,N
1637011916.0,286047018.9,N
1637011935.8,286047025.2,N
1637011955.6,286047026.0,N
1637011975.5,286047027.6,N
1637011995.3,286047022.8,N
1637012015.1,286047019.0,N
1637012035.9,286047022.5,N
1637012055.7,286047024.7,N
1637012075.6,286047019.8,N
1637012095.4,286047016.6,N
1637012115.2,286047014.5,N
1637012135.1,286047011.5,N
1637012136.0,286047011.5,N
1637012155.8,286047008.7,N
1637012175.7,286047005.2,N
1637012195.5,286047002.1,N
1637012215.3,286046999.3,N
1637012235.2,286046999.6,N
1637012255.0,286047004.4,N
1637012255.9,286047004.4,N
1637012275.8,286047009.5,N
1637012295.6,286047008.1,N
1637012315.4,286047010.5,N
1637012335.3,286047010.7,N
1637012355.1,286047007.3,N
1637012375.8,286047002.6,N
1637012395.7,286046995.7,N
1637012415.5,286046994.0,N
1637012435.4,286046993.3,N
1637012455.2,286047000.3,N
1637012475.1,286047006.3,N
1637012476.0,286047006.3,N
1637012495.8,286047013.7,N
1637012515.6,286047021.4,N
1637012535.5,286047020.7,N
1637012555.3,286047020.8,N
1637012575.2,286047028.5,Y
1637012625.9,286047019.8,E
1637012635.8,286047008.4,N
1637012655.7,286046993.6,P
1637012675.5,286046996.4,N
1637012695.4,286047000.1,N
1637012715.2,286047003.1,N
1637012735.1,286047008.0,N
1637012736.0,286047008.0,N
1637012755.8,286047013.7,N
1637012775.6,286047014.2,N
1637012795.5,286047018.4,N
1637012815.3,286047017.9,N
1637012835.2,286047017.6,N
1637012855.0,286047019.7,N
1637012855.9,286047019.7,N
1637012875.8,286047016.4,N
1637012895.6,286047008.0,N
1637012915.4,286047007.4,N
1637012935.3,286047007.3,N
1637012955.1,286047003.6,N
1637012975.9,286046999.6,N
1637012995.7,286047001.0,N
1637013015.5,286047004.3,N
1637013035.4,286047001.4,N
1637013055.2,286047001.6,N
1637013075.0,286047005.7,N
1637013075.9,286047005.7,N
1637013095.8,286047005.7,N
1637013115.6,286046999.9,N
1637013135.5,286046999.5,N
1637013155.3,286046997.8,N
1637013175.1,286047002.3,N
1637013195.9,286047005.8,N
1637013215.7,286047006.7,N
1637013235.5,286047008.2,N
1637013255.4,286047008.7,N
1637013275.2,286047013.5,N
1637013295.1,286047007.9,N
1637013296.0,286047007.9,N
1637013315.8,286047009.1,N
1637013335.6,286047007.0,N
1637013355.5,286047004.4,N
1637013375.3,286047009.2,N
1637013395.2,286047008.3,N
1637013415.9,286047013.1,N
1637013435.7,286047012.9,Y
1637013455.6,286047005.0,P
1637013475.4,286047000.7,N
1637013495.2,286046990.9,P
1637013515.1,286046984.0,N
1637013516.0,286046984.0,N
1637013535.8,286046983.5,N
1637013555.7,286046978.0,N
1637013575.5,286046976.6,N
1637013595.3,286046974.6,N
